This is the latest recevied weather packets stored in our database for station/object N9OJR. If no packets are shown the sender has not sent any weather packets the latest 10 day(s).
| Time | Temp. | Humidity | Pressure | Rain* | Wind** | Luminosity | Snow |
|---|---|---|---|---|---|---|---|
| 1777979867 | 16.11° C | 76% | 1002.8 hPa | 0 mm | - | 16 W/m² | - |
| 1777979563 | 16.11° C | 76% | 1002.8 hPa | 0 mm | - | 13 W/m² | - |
| 1777979259 | 16.11° C | 77% | 1002.9 hPa | 0 mm | - | 12 W/m² | - |
| 1777978957 | 16.11° C | 77% | 1002.7 hPa | 0 mm | - | 13 W/m² | - |
| 1777978653 | 16.11° C | 78% | 1002.8 hPa | 0 mm | - | 10 W/m² | - |
| 1777978349 | 16.11° C | 78% | 1002.8 hPa | 0 mm | - | 10 W/m² | - |
| 1777978046 | 16.11° C | 78% | 1002.8 hPa | 0 mm | - | 7 W/m² | - |
| 1777977743 | 16.11° C | 78% | 1002.7 hPa | 0 mm | - | 3 W/m² | - |
| 1777977439 | 16.11° C | 77% | 1002.7 hPa | 0 mm | - | 3 W/m² | - |
| 1777977137 | 16.11° C | 77% | 1002.7 hPa | 0 mm | - | 3 W/m² | - |
| 1777976834 | 16.11° C | 77% | 1002.5 hPa | 0 mm | - | 1 W/m² | - |
| 1777976532 | 16.11° C | 78% | 1002.4 hPa | 0 mm | - | 0 W/m² | - |
| 1777976231 | 16.11° C | 77% | 1002.5 hPa | 0 mm | - | 0 W/m² | - |
| 1777975927 | 16.11° C | 77% | 1002.4 hPa | 0 mm | - | 0 W/m² | - |
| 1777975623 | 16.11° C | 77% | 1002.4 hPa | 0 mm | - | 0 W/m² | - |
| 1777975320 | 16.11° C | 77% | 1002.4 hPa | 0 mm | - | 0 W/m² | - |
| 1777975016 | 16.11° C | 76% | 1002.4 hPa | 0 mm | - | 0 W/m² | - |
| 1777974714 | 16.11° C | 77% | 1002.4 hPa | 0 mm | - | 0 W/m² | - |
| 1777974409 | 16.11° C | 76% | 1002.4 hPa | 0 mm | - | 0 W/m² | - |
| 1777974106 | 16.11° C | 76% | 1002.3 hPa | 0 mm | - | 0 W/m² | - |
| 1777973802 | 16.67° C | 76% | 1002.1 hPa | 0 mm | - | 0 W/m² | - |
| 1777973500 | 16.67° C | 76% | 1002 hPa | 0 mm | - | 0 W/m² | - |
| 1777973196 | 16.67° C | 75% | 1002.1 hPa | 0 mm | - | 0 W/m² | - |
| 1777972896 | 16.67° C | 75% | 1002 hPa | 0 mm | - | 0 W/m² | - |
| 1777972592 | 16.67° C | 75% | 1002 hPa | 0 mm | - | 0 W/m² | - |
* Rain latest hour (hover to see other rain measurements)
** Current wind speed in m/s (hover to see current wind gust speed)